DW4844 Weather Reports


time (UTC)temp
C
wind
direction
speed
KPH
gust
KPH
rain 1hr
cm
rain 24hr
cm
rain mn
cm
humidity
%
barometer
mb
20260507131217 13 0.0 0.0 0.00 0.00 0.00 31 1016.8
20260507130237 13 0.0 0.0 0.00 0.00 0.00 28 1016.8
20260507125257 14 0.0 0.0 0.00 0.00 0.00 31 1016.7
20260507124217 14 0.0 0.0 0.00 0.00 0.00 28 1016.7
20260507123237 13 0.0 0.0 0.00 0.00 0.00 28 1016.6
20260507122217 13 0.0 0.0 0.00 0.00 0.00 29 1016.7
20260507121217 13 0.0 0.0 0.00 0.00 0.00 30 1016.8
20260507120257 13 0.0 0.0 0.00 0.00 0.00 31 1016.6
20260507115217 13 0.0 0.0 0.00 0.00 0.00 30 1016.6
20260507114217 13 0.0 0.0 0.00 0.00 0.00 34 1016.7
20260507113217 13 0.0 0.0 0.00 0.00 0.00 35 1016.7
20260507112237 12 0.0 0.0 0.00 0.00 0.00 39 1016.6
20260507111217 12 0.0 0.0 0.00 0.00 0.00 40 1016.7
20260507110217 12 0.0 0.0 0.00 0.00 0.00 42 1016.7
20260507105217 12 0.0 0.0 0.00 0.00 0.00 42 1016.6
20260507104217 12 0.0 0.0 0.00 0.00 0.00 43 1016.6
20260507103217 12 0.0 0.0 0.00 0.00 0.00 41 1016.7
20260507102217 12 0.0 0.0 0.00 0.00 0.00 42 1016.6
20260507101217 11 0.0 0.0 0.00 0.00 0.00 43 1016.6
20260507100217 11 0.0 0.0 0.00 0.00 0.00 43 1016.5
20260507095217 12 0.0 0.0 0.00 0.00 0.00 44 1016.6
20260507094217 11 0.0 0.0 0.00 0.00 0.00 43 1016.6
20260507093237 11 0.0 0.0 0.00 0.00 0.00 43 1016.6
20260507092217 10 0.0 0.0 0.00 0.00 0.00 40 1016.6
20260507091237 10 0.0 0.0 0.00 0.00 0.00 45 1016.6
20260507090257 10 0.0 0.0 0.00 0.00 0.00 48 1016.5
20260507085217 9 0.0 0.0 0.00 0.00 0.00 51 1016.5
20260507084217 9 0.0 0.0 0.00 0.00 0.00 52 1016.5
20260507083217 8 0.0 0.0 0.00 0.00 0.00 52 1016.5
20260507082217 8 0.0 0.0 0.00 0.00 0.00 53 1016.4
20260507081217 8 0.0 0.0 0.00 0.00 0.00 54 1016.4
20260507080217 8 0.0 0.0 0.00 0.00 0.00 55 1016.4
20260507075237 8 0.0 0.0 0.00 0.00 0.00 56 1016.4
20260507074217 7 0.0 0.0 0.00 0.00 0.00 58 1016.4
20260507073237 7 0.0 0.0 0.00 0.00 0.00 59 1016.3
20260507072217 7 0.0 0.0 0.00 0.00 0.00 61 1016.3
20260507071217 7 0.0 0.0 0.00 0.00 0.00 63 1016.4
20260507070217 6 0.0 0.0 0.00 0.00 0.00 66 1016.4
20260507065217 6 0.0 0.0 0.00 0.00 0.00 68 1016.4
20260507064217 6 0.0 0.0 0.00 0.00 0.00 71 1016.4
20260507063217 6 0.0 0.0 0.00 0.00 0.00 74 1016.3
20260507062217 5 0.0 0.0 0.00 0.00 0.00 80 1016.2
20260507061217 4 0.0 0.0 0.00 0.00 0.00 81 1016.1
20260507060217 3 0.0 0.0 0.00 0.00 0.00 84 1016.2
20260507055217 3 0.0 0.0 0.00 0.00 0.00 84 1016.2
20260507054217 3 0.0 0.0 0.00 0.00 0.00 85 1016.2
20260507053217 2 0.0 0.0 0.00 0.00 0.00 87 1016.2
20260507052217 2 0.0 0.0 0.00 0.00 0.00 88 1016.1
20260507051217 2 0.0 0.0 0.00 0.00 0.00 88 1016.0
20260507050257 1 0.0 0.0 0.00 0.00 0.00 89 1016.0
20260507045217 1 0.0 0.0 0.00 0.00 0.00 90 1016.0
20260507044217 1 0.0 0.0 0.00 0.00 0.00 90 1015.9
20260507043217 0 0.0 0.0 0.00 0.00 0.00 90 1015.9
20260507042217 0 0.0 0.0 0.00 0.00 0.00 91 1015.8
20260507041217 0 0.0 0.0 0.00 0.00 0.00 90 1015.8
20260507040237 0 0.0 0.0 0.00 0.00 0.00 90 1015.8
20260507035217 0 0.0 0.0 0.00 0.00 0.00 89 1015.7
20260507034217 0 0.0 0.0 0.00 0.00 0.00 89 1015.7
20260507033217 0 0.0 0.0 0.00 0.00 0.00 90 1015.6
20260507032217 0 0.0 0.0 0.00 0.00 0.00 89 1015.7
20260507031237 0 0.0 0.0 0.00 0.00 0.00 89 1015.7
20260507030217 0 0.0 0.0 0.00 0.00 0.00 88 1015.7
20260507025217 0 0.0 0.0 0.00 0.00 0.00 87 1015.7
20260507024217 0 0.0 0.0 0.00 0.00 0.00 87 1015.6
20260507023217 0 0.0 0.0 0.00 0.00 0.00 87 1015.5
20260507022237 1 0.0 0.0 0.00 0.00 0.00 87 1015.5
20260507021237 1 0.0 0.0 0.00 0.00 0.00 86 1015.4
20260507020217 1 0.0 0.0 0.00 0.00 0.00 86 1015.4
20260507015217 1 0.0 0.0 0.00 0.00 0.00 86 1015.4
20260507014217 1 0.0 0.0 0.00 0.00 0.00 85 1015.3
20260507013217 2 0.0 0.0 0.00 0.00 0.00 84 1015.3
20260507012217 2 0.0 0.0 0.00 0.00 0.00 83 1015.1
20260507011317 3 0.0 0.0 0.00 0.00 0.00 85 1015.1
20260507010217 2 0.0 0.0 0.00 0.00 0.00 87 1015.1
20260507005217 2 0.0 0.0 0.00 0.00 0.00 86 1015.3
20260507004217 2 0.0 0.0 0.00 0.00 0.00 85 1015.1
20260507003217 2 0.0 0.0 0.00 0.00 0.00 85 1015.2
20260507002217 2 0.0 0.0 0.00 0.00 0.00 85 1015.1
20260507001217 2 0.0 0.0 0.00 0.00 0.00 85 1015.0
20260507000219 2 0.0 0.0 0.00 0.00 0.00 85 1015.1
20260506235217 2 0.0 0.0 0.00 0.00 0.00 86 1015.0
20260506234217 2 0.0 0.0 0.00 0.00 0.00 86 1015.0
20260506233217 2 0.0 0.0 0.00 0.00 0.00 87 1015.1
20260506232217 1 0.0 0.0 0.00 0.00 0.00 86 1015.0
20260506231217 1 0.0 0.0 0.00 0.00 0.00 85 1015.1
20260506230217 1 0.0 0.0 0.00 0.00 0.00 85 1015.1
20260506225217 1 0.0 0.0 0.00 0.00 0.00 84 1015.0
20260506224237 2 0.0 0.0 0.00 0.00 0.00 84 1015.0
20260506223217 2 0.0 0.0 0.00 0.00 0.00 83 1014.9
20260506222257 2 0.0 0.0 0.00 0.00 0.00 83 1014.9
20260506221237 2 0.0 0.0 0.00 0.00 0.00 82 1014.8
20260506220217 2 0.0 0.0 0.00 0.00 0.00 81 1014.8
20260506215217 2 0.0 0.0 0.00 0.00 0.00 80 1014.8
20260506214217 3 0.0 0.0 0.00 0.00 0.00 78 1014.8
20260506213217 3 0.0 0.0 0.00 0.00 0.00 78 1014.8
20260506212217 3 0.0 0.0 0.00 0.00 0.00 78 1014.7
20260506211257 3 0.0 0.0 0.00 0.00 0.00 77 1014.7
20260506210237 3 0.0 0.0 0.00 0.00 0.00 76 1014.7
20260506205337 3 0.0 0.0 0.00 0.00 0.00 76 1014.7
20260506204217 3 0.0 0.0 0.00 0.00 0.00 75 1014.7
20260506203217 3 0.0 0.0 0.00 0.00 0.00 74 1014.7
20260506202217 4 0.0 0.0 0.00 0.00 0.00 72 1014.6
20260506201217 4 0.0 0.0 0.00 0.00 0.00 71 1014.7
20260506200217 4 0.0 0.0 0.00 0.00 0.00 71 1014.7
20260506195217 4 0.0 0.0 0.00 0.00 0.00 70 1014.6
20260506194217 5 0.0 0.0 0.00 0.00 0.00 68 1014.6
20260506193217 5 0.0 0.0 0.00 0.00 0.00 66 1014.6
20260506192217 5 0.0 0.0 0.00 0.00 0.00 66 1014.5
20260506191217 5 0.0 0.0 0.00 0.00 0.00 66 1014.4
20260506190217 6 0.0 0.0 0.00 0.00 0.00 65 1014.4
20260506185217 6 0.0 0.0 0.00 0.00 0.00 64 1014.3
20260506184217 6 0.0 0.0 0.00 0.00 0.00 65 1014.3
20260506183217 6 0.0 0.0 0.00 0.00 0.00 64 1014.3
20260506182217 6 0.0 0.0 0.00 0.00 0.00 64 1014.3
20260506181217 7 0.0 0.0 0.00 0.00 0.00 63 1014.3
20260506180217 7 0.0 0.0 0.00 0.00 0.00 62 1014.2
20260506175217 7 0.0 0.0 0.00 0.00 0.00 62 1014.2
20260506174217 7 0.0 0.0 0.00 0.00 0.00 62 1014.2
20260506173217 7 0.0 0.0 0.00 0.00 0.00 62 1014.0
20260506172217 7 0.0 0.0 0.00 0.00 0.00 62 1014.0
20260506171217 7 0.0 0.0 0.00 0.00 0.00 62 1014.0
20260506170217 7 0.0 0.0 0.00 0.00 0.00 61 1014.0
20260506165217 7 0.0 0.0 0.00 0.00 0.00 57 1014.0
20260506164217 7 0.0 0.0 0.00 0.00 0.00 58 1013.9
20260506163237 7 0.0 0.0 0.00 0.00 0.00 58 1013.9
20260506162217 7 0.0 0.0 0.00 0.00 0.00 58 1013.8
20260506161217 8 0.0 0.0 0.00 0.00 0.00 57 1013.9
20260506160217 8 0.0 0.0 0.00 0.00 0.00 57 1013.8
20260506155217 8 0.0 0.0 0.00 0.00 0.00 59 1013.9
20260506154217 7 0.0 0.0 0.00 0.00 0.00 59 1013.9
20260506153217 7 0.0 0.0 0.00 0.00 0.00 59 1013.9
20260506152217 7 0.0 0.0 0.00 0.00 0.00 60 1013.9
20260506151237 8 0.0 0.0 0.00 0.00 0.00 60 1013.9
20260506150217 8 0.0 0.0 0.00 0.00 0.00 59 1014.0
20260506145217 7 0.0 0.0 0.00 0.00 0.00 59 1014.0
20260506144217 8 0.0 0.0 0.00 0.00 0.00 57 1014.1
20260506143217 8 0.0 0.0 0.00 0.00 0.00 57 1014.2
20260506142217 8 0.0 0.0 0.00 0.00 0.00 56 1014.0
20260506141217 8 0.0 0.0 0.00 0.00 0.00 55 1014.0
20260506140217 8 0.0 0.0 0.00 0.00 0.00 56 1014.0
20260506135217 8 0.0 0.0 0.00 0.00 0.00 57 1014.1
20260506134217 8 0.0 0.0 0.00 0.00 0.00 58 1014.3
20260506133217 8 0.0 0.0 0.00 0.00 0.00 59 1014.3
20260506132217 8 0.0 0.0 0.00 0.00 0.00 57 1014.2